Location: Noordwijk
(52.2400°N, 4.4500°E)
Time: 14:47:10
(UTC+00:00)

CAS-4A - Pass Details

Date: 11 December 2022
Orbit: 514 x 531 km, 43.0° (Epoch: 01 February)

Event Time Altitude Azimuth Distance (km) Brightness Sun altitude
Exits shadow 06:01:38 10° 236° (WSW) 1,755 ? -14.1°
Maximum altitude 06:04:41 21° 187° (S) 1,212 ? -13.7°
Drops below altitude 10° 06:07:49 10° 137° (SE) 1,778 ? -13.3°
Sets 06:10:26 0° 121° (ESE) 2,671 ? -12.9°
